When you browse on this site, cookies collect data to enhance your experience and personalize the content and advertising you see.
Visit our Privacy Policy to learn more. By continuing to use the site, you agree to this use of cookies and data.

Hourly Weather Nueva Imperial

Today, 7 August, Friday

Time Temperature Precipitation Wind Pressure Humidity
00:00 +4°C° 0 mm 0 mps 764 mmHg 94%
01:00 +3°C° 0 mm 0 mps 764 mmHg 95%
02:00 +3°C° 0 mm 0 mps 763 mmHg 95%
03:00 +3°C° 0 mm 0 mps 763 mmHg 95%
04:00 +2°C° 0 mm 0 mps 763 mmHg 95%
05:00 +2°C° 0 mm 0 mps 763 mmHg 95%
06:00 +2°C° 0 mm 0 mps 763 mmHg 95%
07:00 +3°C° 0 mm 1 mps 763 mmHg 95%
08:00 +4°C° 0 mm 0 mps 763 mmHg 87%
09:00 +7°C° 0 mm 0 mps 763 mmHg 79%
10:00 +9°C° 0 mm 0 mps 763 mmHg 71%
11:00 +11°C° 0 mm 1 mps 762 mmHg 70%
12:00 +12°C° 0 mm 1 mps 762 mmHg 68%
13:00 +13°C° 0 mm 1 mps 762 mmHg 67%
14:00 +12°C° 0 mm 1 mps 761 mmHg 71%
15:00 +12°C° 0 mm 1 mps 761 mmHg 75%
16:00 +12°C° 0 mm 1 mps 761 mmHg 80%
17:00 +10°C° 0 mm 1 mps 761 mmHg 84%
18:00 +8°C° 0 mm 1 mps 761 mmHg 89%
19:00 +7°C° 0 mm 1 mps 762 mmHg 94%
20:00 +6°C° 0 mm 0 mps 761 mmHg 94%
21:00 +5°C° 0 mm 0 mps 761 mmHg 93%
22:00 +5°C° 0 mm 0 mps 761 mmHg 93%
23:00 +5°C° 0 mm 0 mps 761 mmHg 93%

Tomorrow, 8 August, Saturday

Time Temperature Precipitation Wind Pressure Humidity
00:00 +5°C° 0 mm 0 mps 761 mmHg 93%
01:00 +5°C° 0 mm 0 mps 761 mmHg 93%
02:00 +5°C° 0 mm 0 mps 761 mmHg 93%
03:00 +5°C° 0 mm 0 mps 761 mmHg 93%
04:00 +6°C° 0 mm 1 mps 761 mmHg 93%
05:00 +6°C° 0 mm 1 mps 761 mmHg 93%
06:00 +6°C° 0 mm 1 mps 761 mmHg 93%
07:00 +5°C° 0 mm 1 mps 761 mmHg 93%
08:00 +7°C° 0 mm 1 mps 761 mmHg 86%
09:00 +10°C° 0 mm 1 mps 760 mmHg 80%
10:00 +12°C° 0 mm 1 mps 760 mmHg 73%
11:00 +13°C° 0 mm 1 mps 760 mmHg 71%
12:00 +14°C° 0 mm 1 mps 759 mmHg 69%
13:00 +15°C° 0 mm 1 mps 759 mmHg 66%
14:00 +14°C° 0 mm 1 mps 759 mmHg 70%
15:00 +14°C° 0 mm 1 mps 758 mmHg 75%
16:00 +13°C° 0 mm 1 mps 758 mmHg 79%
17:00 +12°C° 0 mm 1 mps 758 mmHg 83%
18:00 +11°C° 0 mm 1 mps 758 mmHg 88%
19:00 +9°C° 0 mm 1 mps 758 mmHg 92%
20:00 +8°C° 0 mm 2 mps 758 mmHg 92%
21:00 +8°C° 0 mm 2 mps 757 mmHg 91%
22:00 +8°C° 0 mm 2 mps 757 mmHg 90%
23:00 +8°C° 0.9 mm 3 mps 757 mmHg 92%

Day after tomorrow, 9 August, Sunday

Time Temperature Precipitation Wind Pressure Humidity
00:00 +8°C° 0.9 mm 3 mps 757 mmHg 94%
01:00 +9°C° 0.9 mm 3 mps 757 mmHg 95%
02:00 +9°C° 0.8 mm 3 mps 757 mmHg 96%
03:00 +9°C° 0.8 mm 2 mps 757 mmHg 96%
04:00 +9°C° 0.8 mm 2 mps 757 mmHg 97%
05:00 +9°C° 0.4 mm 2 mps 757 mmHg 97%
06:00 +9°C° 0.4 mm 2 mps 757 mmHg 97%
07:00 +9°C° 0.4 mm 2 mps 758 mmHg 97%
08:00 +9°C° 0.4 mm 2 mps 758 mmHg 97%
09:00 +9°C° 0.4 mm 2 mps 759 mmHg 96%
10:00 +9°C° 0.4 mm 2 mps 759 mmHg 96%
11:00 +9°C° 0.1 mm 3 mps 759 mmHg 93%
12:00 +9°C° 0.1 mm 3 mps 760 mmHg 89%
13:00 +9°C° 0.1 mm 3 mps 761 mmHg 86%
14:00 +8°C° 0 mm 3 mps 761 mmHg 85%
15:00 +8°C° 0 mm 3 mps 761 mmHg 83%
16:00 +7°C° 0 mm 3 mps 762 mmHg 81%
17:00 +7°C° 0 mm 2 mps 763 mmHg 82%
18:00 +8°C° 0 mm 1 mps 763 mmHg 83%
19:00 +7°C° 0 mm 1 mps 764 mmHg 83%
20:00 +7°C° 0.1 mm 1 mps 764 mmHg 85%
21:00 +7°C° 0.1 mm 1 mps 764 mmHg 87%
22:00 +7°C° 0.1 mm 1 mps 765 mmHg 89%
23:00 +7°C° 0.1 mm 1 mps 765 mmHg 90%

10 August, Monday

Time Temperature Precipitation Wind Pressure Humidity
00:00 +6°C° 0.1 mm 1 mps 765 mmHg 91%
01:00 +5°C° 0.1 mm 2 mps 765 mmHg 93%
02:00 +6°C° 0.2 mm 1 mps 765 mmHg 93%
03:00 +6°C° 0.2 mm 1 mps 765 mmHg 93%
04:00 +7°C° 0.2 mm 1 mps 765 mmHg 93%
05:00 +6°C° 0.1 mm 1 mps 765 mmHg 93%
06:00 +6°C° 0.1 mm 1 mps 766 mmHg 93%
07:00 +5°C° 0.1 mm 1 mps 766 mmHg 93%
08:00 +6°C° 0.1 mm 1 mps 767 mmHg 88%
09:00 +7°C° 0.1 mm 1 mps 767 mmHg 83%
10:00 +7°C° 0.1 mm 2 mps 767 mmHg 78%
11:00 +8°C° 0.1 mm 2 mps 767 mmHg 75%
12:00 +8°C° 0.1 mm 3 mps 767 mmHg 71%
13:00 +9°C° 0.1 mm 3 mps 767 mmHg 68%
14:00 +9°C° 0.1 mm 3 mps 766 mmHg 70%
15:00 +8°C° 0.1 mm 2 mps 766 mmHg 73%
16:00 +8°C° 0.1 mm 2 mps 766 mmHg 75%
17:00 +6°C° 0 mm 2 mps 766 mmHg 81%
18:00 +6°C° 0 mm 1 mps 767 mmHg 86%
19:00 +4°C° 0 mm 0 mps 767 mmHg 92%
20:00 +3°C° 0 mm 0 mps 767 mmHg 92%
21:00 +3°C° 0 mm 0 mps 767 mmHg 93%
22:00 +3°C° 0 mm 0 mps 767 mmHg 93%
23:00 +3°C° 0 mm 0 mps 766 mmHg 94%

11 August, Tuesday

Time Temperature Precipitation Wind Pressure Humidity
00:00 +2°C° 0 mm 0 mps 766 mmHg 95%
01:00 +2°C° 0 mm 0 mps 766 mmHg 95%
02:00 +2°C° 0 mm 0 mps 765 mmHg 95%
03:00 +1°C° 0 mm 0 mps 765 mmHg 95%
04:00 +1°C° 0 mm 0 mps 764 mmHg 96%
05:00 +1°C° 0 mm 0 mps 764 mmHg 95%
06:00 +1°C° 0 mm 0 mps 763 mmHg 95%
07:00 +1°C° 0 mm 0 mps 763 mmHg 95%
08:00 +3°C° 0 mm 0 mps 763 mmHg 88%
09:00 +5°C° 0 mm 0 mps 762 mmHg 81%
10:00 +7°C° 0 mm 0 mps 762 mmHg 75%
11:00 +9°C° 0 mm 1 mps 761 mmHg 72%
12:00 +10°C° 0 mm 1 mps 761 mmHg 69%
13:00 +12°C° 0 mm 1 mps 760 mmHg 65%
14:00 +11°C° 0.1 mm 1 mps 759 mmHg 70%
15:00 +10°C° 0.1 mm 1 mps 759 mmHg 76%
16:00 +10°C° 0.1 mm 1 mps 759 mmHg 81%
17:00 +9°C° 0 mm 1 mps 759 mmHg 84%
18:00 +8°C° 0 mm 1 mps 758 mmHg 87%
19:00 +7°C° 0 mm 1 mps 758 mmHg 91%
20:00 +7°C° 0 mm 1 mps 758 mmHg 91%
21:00 +7°C° 0 mm 1 mps 758 mmHg 91%
22:00 +7°C° 0 mm 1 mps 758 mmHg 91%
23:00 +7°C° 0.1 mm 1 mps 758 mmHg 92%

12 August, Wednesday

Time Temperature Precipitation Wind Pressure Humidity
00:00 +6°C° 0.1 mm 1 mps 757 mmHg 93%
01:00 +6°C° 0.1 mm 1 mps 757 mmHg 94%
02:00 +6°C° 0.2 mm 1 mps 756 mmHg 94%
03:00 +6°C° 0.2 mm 1 mps 756 mmHg 94%
04:00 +5°C° 0.2 mm 2 mps 755 mmHg 95%
05:00 +5°C° 0.2 mm 2 mps 755 mmHg 95%
06:00 +5°C° 0.2 mm 2 mps 755 mmHg 95%
07:00 +6°C° 0.2 mm 2 mps 754 mmHg 95%
08:00 +6°C° 0.6 mm 2 mps 754 mmHg 95%
09:00 +6°C° 0.6 mm 2 mps 754 mmHg 95%
10:00 +7°C° 0.6 mm 3 mps 754 mmHg 94%
11:00 +7°C° 2.6 mm 2 mps 753 mmHg 95%
12:00 +7°C° 2.6 mm 2 mps 753 mmHg 95%
13:00 +7°C° 2.6 mm 2 mps 753 mmHg 96%
14:00 +7°C° 0.6 mm 2 mps 753 mmHg 93%
15:00 +7°C° 0.6 mm 2 mps 753 mmHg 91%
16:00 +7°C° 0.6 mm 2 mps 753 mmHg 88%
17:00 +5°C° 0 mm 2 mps 754 mmHg 89%
18:00 +4°C° 0 mm 2 mps 755 mmHg 90%
19:00 +4°C° 0 mm 1 mps 755 mmHg 91%
20:00 +4°C° 0 mm 1 mps 756 mmHg 92%
21:00 +3°C° 0 mm 1 mps 757 mmHg 92%
22:00 +3°C° 0 mm 1 mps 757 mmHg 92%
23:00 +3°C° 0.1 mm 1 mps 758 mmHg 93%
Show more